Find Galaxy 3C

NORAD ID: 27445 Int'l Des: 2002-030 Owner: PAN Country: US operational
HEOCIRCULARGSO

Live Position

Loading 3D Globe...

About Galaxy 3C

Description loading...

Upcoming Passes

Passes for default location (London). Set your location on the main map for personalized predictions.

Altitude History

Loading altitude history...

Two-Line Element Set

1 27445U 02030A 26105.56608487 -.00000143 00000-0 00000-0 0 9994
2 27445 3.5675 78.8197 0001526 28.0101 205.8321 1.00271216 45860
Epoch: Apr 15, 2026 • Age: 9 hours

Current Status

Altitude 35780.3 km
Velocity 3.08 km/s
Sub-Earth Point 0.28°N, 94.88°W
Launch Date Jun 15, 2002
Age 23.8 years
Type other

Technical Details

Classification Payload
Mass 4850.00 kg
Dry Mass 2000.00 kg
Total Mass 4850.00 kg
Length 7.00 m
Diameter 3.30 m
Span 47.80 m
Shape Box + 2 Pan
Manufacturer BOES
Bus Type BSS-702HP
Phase Status Renamed
Owner/State PAN/US

Most Searched